,,,PA_Meas_PMT16A,,PR_Meas_QMR101_102,,RH_Meas_QMH101,,SR_Meas_QMS101,,TA_Meas_QMH101,,GenWind,,GenWind,
date,time,status,PA,status,PR,status,RH,status,SR,status,TA,status,DirAvg,status,SpdAvg,
2010-10-23, 00:00:04,VALID,999.696,VALID,0,VALID,90.8917,VALID,0,VALID,23.2312,VALID,79,VALID,0.984375,
2010-10-23, 00:01:04,VALID,999.699,VALID,0,VALID,90.9298,VALID,0,VALID,23.2329,VALID,79,VALID,0.986719,
2010-10-23, 00:02:04,VALID,999.688,VALID,0,VALID,91.09,VALID,0,VALID,23.2329,VALID,79,VALID,1.00937,
2010-10-23, 00:03:04,VALID,999.692,VALID,0,VALID,91.0977,VALID,0,VALID,23.1744,VALID,79,VALID,0.903125,
2010-10-23, 00:04:04,VALID,999.711,VALID,0,VALID,91.2045,VALID,0,VALID,23.1531,VALID,79,VALID,0.786328,
2010-10-23, 00:05:04,VALID,999.672,VALID,0,VALID,91.2655,VALID,0,VALID,23.1549,VALID,79,VALID,0.694531,
2010-10-23, 00:06:04,VALID,999.689,VALID,0,VALID,91.3494,VALID,0,VALID,23.1336,VALID,79,VALID,0.597266,
2010-10-23, 00:07:04,VALID,999.669,VALID,0,VALID,91.4105,VALID,0,VALID,23.1141,VALID,79,VALID,0.569531,
2010-10-23, 00:08:04,VALID,999.663,VALID,0,VALID,91.5097,VALID,0,VALID,23.1354,VALID,79,VALID,0.564062,
2010-10-23, 00:09:04,VALID,999.667,VALID,0,VALID,91.6012,VALID,0,VALID,23.1354,VALID,79,VALID,0.555859,
2010-10-23, 00:10:04,VALID,999.665,VALID,0,VALID,91.6546,VALID,0,VALID,23.1159,VALID,79,VALID,0.625,
2010-10-23, 00:11:04,VALID,999.657,VALID,0,VALID,91.7309,VALID,0,VALID,23.0946,VALID,79,VALID,0.6125,
2010-10-23, 00:12:04,VALID,999.655,VALID,0,VALID,91.792,VALID,0,VALID,23.1336,VALID,79,VALID,0.620313,
2010-10-23, 00:13:04,VALID,999.661,VALID,0,VALID,91.7767,VALID,0,VALID,23.1354,VALID,80,VALID,0.680859,
2010-10-23, 00:14:04,VALID,999.65,VALID,0,VALID,91.7691,VALID,0,VALID,23.1354,VALID,82,VALID,0.546875,
2010-10-23, 00:15:04,VALID,999.644,VALID,0,VALID,91.7462,VALID,0,VALID,23.1141,VALID,82,VALID,0.570313,
2010-10-23, 00:16:04,VALID,999.65,VALID,0,VALID,91.7157,VALID,0,VALID,23.1159,VALID,84,VALID,0.559766,
2010-10-23, 00:17:04,VALID,999.642,VALID,0,VALID,91.708,VALID,0,VALID,23.1141,VALID,122,VALID,0.687891,
2010-10-23, 00:18:04,VALID,999.603,VALID,0,VALID,91.708,VALID,0,VALID,23.1336,VALID,147,VALID,0.587891,
2010-10-23, 00:19:04,VALID,999.552,VALID,0,VALID,91.6317,VALID,0,VALID,23.1354,VALID,170,VALID,0.961719,
2010-10-23, 00:20:04,VALID,999.526,VALID,0,VALID,91.4486,VALID,0,VALID,23.1921,VALID,157,VALID,0.982422,
2010-10-23, 00:21:04,VALID,999.503,VALID,0,VALID,91.0595,VALID,0,VALID,23.2719,VALID,149,VALID,1.01953,
2010-10-23, 00:22:04,VALID,999.505,VALID,0,VALID,90.6857,VALID,0,VALID,23.2897,VALID,148,VALID,0.803516,
2010-10-23, 00:23:04,VALID,999.478,VALID,0,VALID,90.3728,VALID,0,VALID,23.3287,VALID,148,VALID,0.851563,
2010-10-23, 00:24:04,VALID,999.488,VALID,0,VALID,90.0829,VALID,0,VALID,23.3677,VALID,147,VALID,0.646875,
2010-10-23, 00:25:04,VALID,999.479,VALID,0,VALID,89.8083,VALID,0,VALID,23.4085,VALID,147,VALID,0.661328,
2010-10-23, 00:26:04,VALID,999.451,VALID,0,VALID,89.732,VALID,0,VALID,23.4263,VALID,147,VALID,0.510156,
2010-10-23, 00:27:04,VALID,999.45,VALID,0,VALID,89.5946,VALID,0,VALID,23.4458,VALID,147,VALID,0.641016,
2010-10-23, 00:28:04,VALID,999.432,VALID,0,VALID,89.4039,VALID,0,VALID,23.4458,VALID,147,VALID,0.685547,
2010-10-23, 00:29:04,VALID,999.439,VALID,0,VALID,89.236,VALID,0,VALID,23.4653,VALID,171,VALID,0.727734,
2010-10-23, 00:30:04,VALID,999.405,VALID,0,VALID,89.03,VALID,0,VALID,23.5256,VALID,157,VALID,1.15234,
2010-10-23, 00:31:04,VALID,999.364,VALID,0,VALID,88.5723,VALID,0,VALID,23.5433,VALID,158,VALID,0.760938,
2010-10-23, 00:32:04,VALID,999.358,VALID,0,VALID,88.351,VALID,0,VALID,23.5646,VALID,144,VALID,0.710156,
2010-10-23, 00:33:04,VALID,999.33,VALID,0,VALID,88.3129,VALID,0,VALID,23.5628,VALID,144,VALID,0.485547,
2010-10-23, 00:34:04,VALID,999.345,VALID,0,VALID,88.2594,VALID,0,VALID,23.5628,VALID,144,VALID,0.491797,
2010-10-23, 00:35:04,VALID,999.347,VALID,0,VALID,88.1984,VALID,0,VALID,23.5841,VALID,144,VALID,0.517187,
2010-10-23, 00:36:04,VALID,999.352,VALID,0,VALID,88.2671,VALID,0,VALID,23.5628,VALID,77,VALID,0.841406,
2010-10-23, 00:37:04,VALID,999.339,VALID,0,VALID,88.2671,VALID,0,VALID,23.5841,VALID,74,VALID,0.885938,
2010-10-23, 00:38:04,VALID,999.354,VALID,0,VALID,88.2976,VALID,0,VALID,23.5859,VALID,74,VALID,1.11484,
2010-10-23, 00:39:04,VALID,999.327,VALID,0,VALID,88.4273,VALID,0,VALID,23.5451,VALID,66,VALID,1.2918,
2010-10-23, 00:40:04,VALID,999.358,VALID,0,VALID,88.5875,VALID,0,VALID,23.5061,VALID,66,VALID,1.10547,
2010-10-23, 00:41:04,VALID,999.331,VALID,0,VALID,88.8088,VALID,0,VALID,23.4475,VALID,66,VALID,0.964844,
2010-10-23, 00:42:04,VALID,999.369,VALID,0,VALID,89.1826,VALID,0,VALID,23.4085,VALID,66,VALID,0.978516,
2010-10-23, 00:43:04,VALID,999.344,VALID,0,VALID,89.4802,VALID,0,VALID,23.35,VALID,66,VALID,0.809375,
2010-10-23, 00:44:04,VALID,999.308,VALID,0,VALID,89.8235,VALID,0,VALID,23.3305,VALID,66,VALID,0.875,
2010-10-23, 00:45:04,VALID,999.307,VALID,0,VALID,90.0219,VALID,0,VALID,23.2719,VALID,66,VALID,0.735156,
2010-10-23, 00:46:04,VALID,999.277,VALID,0,VALID,90.3194,VALID,0,VALID,23.2329,VALID,57,VALID,0.703516,
2010-10-23, 00:47:04,VALID,999.244,VALID,0,VALID,90.556,VALID,0,VALID,23.1939,VALID,57,VALID,0.680078,
2010-10-23, 00:48:04,VALID,999.208,VALID,0,VALID,90.7849,VALID,0,VALID,23.1549,VALID,29,VALID,0.664453,
2010-10-23, 00:49:04,VALID,999.156,VALID,0,VALID,90.9756,VALID,0,VALID,23.1159,VALID,29,VALID,0.458984,
2010-10-23, 00:50:04,VALID,999.112,VALID,0,VALID,91.1206,VALID,0,VALID,23.0769,VALID,29,VALID,0.350391,
2010-10-23, 00:51:04,VALID,999.115,VALID,0,VALID,91.2731,VALID,0,VALID,23.0769,VALID,29,VALID,0.177344,
2010-10-23, 00:52:04,VALID,999.085,VALID,0,VALID,91.38,VALID,0,VALID,23.0378,VALID,29,VALID,0.159766,
2010-10-23, 00:53:04,VALID,999.065,VALID,0,VALID,91.502,VALID,0,VALID,23.0378,VALID,29,VALID,0.167969,
2010-10-23, 00:54:04,VALID,999.007,VALID,0,VALID,91.586,VALID,0,VALID,23.0378,VALID,29,VALID,0.29375,
2010-10-23, 00:55:04,VALID,998.992,VALID,0,VALID,91.6775,VALID,0,VALID,23.0183,VALID,45,VALID,0.560547,
2010-10-23, 00:56:04,VALID,998.981,VALID,0,VALID,91.7843,VALID,0,VALID,23.0573,VALID,104,VALID,0.411719,
2010-10-23, 00:57:04,VALID,998.985,VALID,0,VALID,91.7843,VALID,0,VALID,23.0769,VALID,104,VALID,0.434766,
2010-10-23, 00:58:04,VALID,998.905,VALID,0,VALID,91.7309,VALID,0,VALID,23.0769,VALID,104,VALID,0.046875,
2010-10-23, 00:59:04,VALID,998.93,VALID,0,VALID,91.6699,VALID,0,VALID,23.0964,VALID,104,VALID,0.104687,
2010-10-23, 01:00:04,VALID,998.905,VALID,0,VALID,91.6394,VALID,0,VALID,23.0946,VALID,104,VALID,0.258203,
2010-10-23, 01:01:04,VALID,998.891,VALID,0,VALID,91.6165,VALID,0,VALID,23.1159,VALID,104,VALID,0.236328,
2010-10-23, 01:02:04,VALID,998.906,VALID,0,VALID,91.5783,VALID,0,VALID,23.1159,VALID,104,VALID,0.441016,
2010-10-23, 01:03:04,VALID,998.898,VALID,0,VALID,91.5326,VALID,0,VALID,23.1141,VALID,102,VALID,0.559375,
2010-10-23, 01:04:04,VALID,998.907,VALID,0,VALID,91.5097,VALID,0,VALID,23.1549,VALID,77,VALID,0.826563,
2010-10-23, 01:05:04,VALID,998.89,VALID,0,VALID,91.4028,VALID,0,VALID,23.1744,VALID,77,VALID,0.9,
2010-10-23, 01:06:04,VALID,998.872,VALID,0,VALID,91.2197,VALID,0,VALID,23.2329,VALID,77,VALID,0.928516,
2010-10-23, 01:07:04,VALID,998.852,VALID,0,VALID,90.9451,VALID,0,VALID,23.2719,VALID,79,VALID,0.738672,
2010-10-23, 01:08:04,VALID,998.841,VALID,0,VALID,90.5941,VALID,0,VALID,23.311,VALID,80,VALID,1.02734,
2010-10-23, 01:09:04,VALID,998.809,VALID,0,VALID,90.1211,VALID,0,VALID,23.3695,VALID,82,VALID,0.842969,
2010-10-23, 01:10:04,VALID,998.795,VALID,0,VALID,89.7549,VALID,0,VALID,23.4067,VALID,82,VALID,0.714844,
2010-10-23, 01:11:04,VALID,998.802,VALID,0,VALID,89.4802,VALID,0,VALID,23.4671,VALID,75,VALID,0.559766,
2010-10-23, 01:12:04,VALID,998.794,VALID,0,VALID,89.3276,VALID,0,VALID,23.4688,VALID,74,VALID,0.387109,
2010-10-23, 01:13:04,VALID,998.787,VALID,0,VALID,89.2742,VALID,0,VALID,23.4475,VALID,74,VALID,0.198437,
2010-10-23, 01:14:04,VALID,998.765,VALID,0,VALID,89.3657,VALID,0,VALID,23.4085,VALID,74,VALID,0.346484,
2010-10-23, 01:15:04,VALID,998.76,VALID,0,VALID,89.5717,VALID,0,VALID,23.389,VALID,74,VALID,0.297266,
2010-10-23, 01:16:04,VALID,998.737,VALID,0,VALID,89.793,VALID,0,VALID,23.3695,VALID,74,VALID,0.190234,
2010-10-23, 01:17:04,VALID,998.748,VALID,0,VALID,89.9609,VALID,0,VALID,23.3305,VALID,74,VALID,0.156641,
2010-10-23, 01:18:04,VALID,998.703,VALID,0,VALID,90.1668,VALID,0,VALID,23.311,VALID,74,VALID,0.234766,
2010-10-23, 01:19:04,VALID,998.724,VALID,0,VALID,90.4034,VALID,0,VALID,23.2915,VALID,74,VALID,0.303516,
2010-10-23, 01:20:04,VALID,998.722,VALID,0,VALID,90.6094,VALID,0,VALID,23.2932,VALID,74,VALID,0.313672,
2010-10-23, 01:21:04,VALID,998.709,VALID,0,VALID,90.7772,VALID,0,VALID,23.2932,VALID,74,VALID,0.321484,
2010-10-23, 01:22:04,VALID,998.708,VALID,0,VALID,90.8917,VALID,0,VALID,23.2915,VALID,74,VALID,0.272266,
2010-10-23, 01:23:04,VALID,998.672,VALID,0,VALID,90.9298,VALID,0,VALID,23.2915,VALID,74,VALID,0.276172,
2010-10-23, 01:24:04,VALID,998.695,VALID,0,VALID,90.968,VALID,0,VALID,23.2719,VALID,74,VALID,0.292969,
2010-10-23, 01:25:04,VALID,998.684,VALID,0,VALID,91.0214,VALID,0,VALID,23.2719,VALID,74,VALID,0.380859,
2010-10-23, 01:26:04,VALID,998.685,VALID,0,VALID,91.0824,VALID,0,VALID,23.2719,VALID,74,VALID,0.456641,
2010-10-23, 01:27:04,VALID,998.706,VALID,0,VALID,91.1053,VALID,0,VALID,23.2737,VALID,74,VALID,0.559375,
2010-10-23, 01:28:04,VALID,998.676,VALID,0,VALID,91.174,VALID,0,VALID,23.2329,VALID,74,VALID,0.511719,
2010-10-23, 01:29:04,VALID,998.669,VALID,0,VALID,91.2655,VALID,0,VALID,23.2134,VALID,74,VALID,0.319531,
2010-10-23, 01:30:04,VALID,998.632,VALID,0,VALID,91.3723,VALID,0,VALID,23.2134,VALID,74,VALID,0.178906,
2010-10-23, 01:31:04,VALID,998.64,VALID,0,VALID,91.4715,VALID,0,VALID,23.1939,VALID,74,VALID,0,
2010-10-23, 01:32:04,VALID,998.606,VALID,0,VALID,91.5478,VALID,0,VALID,23.1939,VALID,74,VALID,0,
2010-10-23, 01:33:04,VALID,998.625,VALID,0,VALID,91.6317,VALID,0,VALID,23.1744,VALID,74,VALID,0.213672,
2010-10-23, 01:34:04,VALID,998.561,VALID,0,VALID,91.7004,VALID,0,VALID,23.1939,VALID,74,VALID,0.335938,
2010-10-23, 01:35:04,VALID,998.563,VALID,0,VALID,91.7385,VALID,0,VALID,23.1744,VALID,74,VALID,0.525781,
2010-10-23, 01:36:04,VALID,998.541,VALID,0,VALID,91.7996,VALID,0,VALID,23.1939,VALID,103,VALID,0.657422,
2010-10-23, 01:37:04,VALID,998.543,VALID,0,VALID,91.7691,VALID,0,VALID,23.1939,VALID,135,VALID,0.579687,
2010-10-23, 01:38:04,VALID,998.523,VALID,0,VALID,91.708,VALID,0,VALID,23.2134,VALID,152,VALID,1.27031,
2010-10-23, 01:39:04,VALID,998.545,VALID,0,VALID,91.4944,VALID,0,VALID,23.2524,VALID,152,VALID,0.978906,
2010-10-23, 01:40:04,VALID,998.551,VALID,0,VALID,91.2045,VALID,0,VALID,23.2897,VALID,151,VALID,0.964844,
2010-10-23, 01:41:04,VALID,998.539,VALID,0,VALID,90.8993,VALID,0,VALID,23.3305,VALID,151,VALID,0.858203,
2010-10-23, 01:42:04,VALID,998.598,VALID,0,VALID,90.5331,VALID,0,VALID,23.35,VALID,151,VALID,1.12422,
2010-10-23, 01:43:04,VALID,998.611,VALID,0,VALID,90.1058,VALID,0,VALID,23.389,VALID,160,VALID,0.884375,
2010-10-23, 01:44:04,VALID,998.621,VALID,0,VALID,89.7167,VALID,0,VALID,23.4085,VALID,152,VALID,0.626172,
2010-10-23, 01:45:04,VALID,998.645,VALID,0,VALID,89.4497,VALID,0,VALID,23.428,VALID,160,VALID,0.812109,
2010-10-23, 01:46:04,VALID,998.627,VALID,0,VALID,89.1826,VALID,0,VALID,23.4263,VALID,153,VALID,0.571875,
2010-10-23, 01:47:04,VALID,998.604,VALID,0,VALID,89.1368,VALID,0,VALID,23.4475,VALID,153,VALID,0.648047,
2010-10-23, 01:48:04,VALID,998.599,VALID,0,VALID,88.9919,VALID,0,VALID,23.4671,VALID,153,VALID,0.586719,
2010-10-23, 01:49:04,VALID,998.569,VALID,0,VALID,88.8698,VALID,0,VALID,23.4866,VALID,153,VALID,0.457422,
2010-10-23, 01:50:04,VALID,998.53,VALID,0,VALID,88.7172,VALID,0,VALID,23.4866,VALID,153,VALID,0.699219,
2010-10-23, 01:51:04,VALID,998.535,VALID,0,VALID,88.6104,VALID,0,VALID,23.5274,VALID,153,VALID,0.632031,
2010-10-23, 01:52:04,VALID,998.511,VALID,0,VALID,88.4044,VALID,0,VALID,23.5451,VALID,153,VALID,0.932422,
2010-10-23, 01:53:04,VALID,998.466,VALID,0,VALID,88.3281,VALID,0,VALID,23.5451,VALID,155,VALID,1.08711,
2010-10-23, 01:54:04,VALID,998.434,VALID,0,VALID,88.3739,VALID,0,VALID,23.5451,VALID,172,VALID,1.59141,
2010-10-23, 01:55:04,VALID,998.413,VALID,0,VALID,88.3586,VALID,0,VALID,23.5469,VALID,159,VALID,1.46133,
2010-10-23, 01:56:04,VALID,998.412,VALID,0,VALID,88.29,VALID,0,VALID,23.5451,VALID,161,VALID,1.34531,
2010-10-23, 01:57:04,VALID,998.406,VALID,0,VALID,88.3586,VALID,0,VALID,23.5256,VALID,154,VALID,1.24453,
2010-10-23, 01:58:04,VALID,998.401,VALID,0,VALID,88.4349,VALID,0,VALID,23.5256,VALID,163,VALID,1.2293,
2010-10-23, 01:59:04,VALID,998.41,VALID,0,VALID,88.5494,VALID,0,VALID,23.5256,VALID,173,VALID,1.64336,
2010-10-23, 02:00:04,VALID,998.405,VALID,0,VALID,88.5189,VALID,0,VALID,23.5451,VALID,171,VALID,1.41602,
2010-10-23, 02:01:04,VALID,998.421,VALID,0,VALID,88.3892,VALID,0,VALID,23.5646,VALID,168,VALID,1.33398,
2010-10-23, 02:02:04,VALID,998.398,VALID,0,VALID,88.29,VALID,0,VALID,23.5841,VALID,169,VALID,0.963281,
2010-10-23, 02:03:04,VALID,998.384,VALID,0,VALID,88.2442,VALID,0,VALID,23.5646,VALID,174,VALID,0.860156,
2010-10-23, 02:04:04,VALID,998.356,VALID,0,VALID,88.2289,VALID,0,VALID,23.5451,VALID,173,VALID,0.793359,
2010-10-23, 02:05:04,VALID,998.358,VALID,0,VALID,88.2671,VALID,0,VALID,23.5238,VALID,173,VALID,0.651172,
2010-10-23, 02:06:04,VALID,998.376,VALID,0,VALID,88.2976,VALID,0,VALID,23.5256,VALID,173,VALID,0.679688,
2010-10-23, 02:07:04,VALID,998.396,VALID,0,VALID,88.3434,VALID,0,VALID,23.5061,VALID,173,VALID,0.508203,
2010-10-23, 02:08:04,VALID,998.377,VALID,0,VALID,88.4044,VALID,0,VALID,23.4866,VALID,173,VALID,0.4375,
2010-10-23, 02:09:04,VALID,998.408,VALID,0,VALID,88.4883,VALID,0,VALID,23.4671,VALID,173,VALID,0.358984,
2010-10-23, 02:10:04,VALID,998.407,VALID,0,VALID,88.5875,VALID,0,VALID,23.4458,VALID,173,VALID,0.308203,
2010-10-23, 02:11:04,VALID,998.378,VALID,0,VALID,88.618,VALID,0,VALID,23.4263,VALID,173,VALID,0.09375,
2010-10-23, 02:12:04,VALID,998.393,VALID,0,VALID,88.5799,VALID,0,VALID,23.428,VALID,173,VALID,0,
2010-10-23, 02:13:04,VALID,998.38,VALID,0,VALID,88.6562,VALID,0,VALID,23.428,VALID,173,VALID,0,
2010-10-23, 02:14:04,VALID,998.39,VALID,0,VALID,88.7783,VALID,0,VALID,23.4085,VALID,173,VALID,0.207422,
2010-10-23, 02:15:04,VALID,998.384,VALID,0,VALID,88.9156,VALID,0,VALID,23.4085,VALID,173,VALID,0.503906,
2010-10-23, 02:16:04,VALID,998.384,VALID,0,VALID,88.9309,VALID,0,VALID,23.4085,VALID,173,VALID,0.340234,
2010-10-23, 02:17:04,VALID,998.365,VALID,0,VALID,88.9232,VALID,0,VALID,23.428,VALID,173,VALID,0.319141,
2010-10-23, 02:18:04,VALID,998.4,VALID,0,VALID,89.0377,VALID,0,VALID,23.389,VALID,173,VALID,0.252344,
2010-10-23, 02:19:04,VALID,998.361,VALID,0,VALID,89.1597,VALID,0,VALID,23.35,VALID,173,VALID,0.281641,
2010-10-23, 02:20:04,VALID,998.373,VALID,0,VALID,89.381,VALID,0,VALID,23.3305,VALID,173,VALID,0.180469,
2010-10-23, 02:21:04,VALID,998.361,VALID,0,VALID,89.5107,VALID,0,VALID,23.2915,VALID,173,VALID,0.335938,
2010-10-23, 02:22:04,VALID,998.341,VALID,0,VALID,89.6175,VALID,0,VALID,23.2312,VALID,173,VALID,0.193359,
2010-10-23, 02:23:04,VALID,998.327,VALID,0,VALID,89.7854,VALID,0,VALID,23.2134,VALID,173,VALID,0.219922,
2010-10-23, 02:24:04,VALID,998.331,VALID,0,VALID,89.8998,VALID,0,VALID,23.1939,VALID,173,VALID,0,
2010-10-23, 02:25:04,VALID,998.333,VALID,0,VALID,89.9914,VALID,0,VALID,23.1744,VALID,173,VALID,0,
2010-10-23, 02:26:04,VALID,998.328,VALID,0,VALID,90.0982,VALID,0,VALID,23.1336,VALID,173,VALID,0,
2010-10-23, 02:27:04,VALID,998.348,VALID,0,VALID,90.2279,VALID,0,VALID,23.1159,VALID,173,VALID,0.166797,
2010-10-23, 02:28:04,VALID,998.325,VALID,0,VALID,90.3805,VALID,0,VALID,23.0946,VALID,173,VALID,0.344531,
2010-10-23, 02:29:04,VALID,998.331,VALID,0,VALID,90.556,VALID,0,VALID,23.1159,VALID,72,VALID,0.629687,
2010-10-23, 02:30:04,VALID,998.322,VALID,0,VALID,90.6933,VALID,0,VALID,23.1159,VALID,72,VALID,0.620703,
2010-10-23, 02:31:04,VALID,998.319,VALID,0,VALID,90.7391,VALID,0,VALID,23.1354,VALID,72,VALID,0.508203,
2010-10-23, 02:32:04,VALID,998.307,VALID,0,VALID,90.7543,VALID,0,VALID,23.1354,VALID,72,VALID,0.608984,
2010-10-23, 02:33:04,VALID,998.268,VALID,0,VALID,90.8154,VALID,0,VALID,23.1354,VALID,72,VALID,0.328906,
2010-10-23, 02:34:04,VALID,998.243,VALID,0,VALID,90.884,VALID,0,VALID,23.1354,VALID,72,VALID,0.476563,
2010-10-23, 02:35:04,VALID,998.211,VALID,0,VALID,90.9374,VALID,0,VALID,23.1141,VALID,72,VALID,0.438281,
2010-10-23, 02:36:04,VALID,998.201,VALID,0,VALID,90.9909,VALID,0,VALID,23.1141,VALID,72,VALID,0.313281,
2010-10-23, 02:37:04,VALID,998.163,VALID,0,VALID,91.0443,VALID,0,VALID,23.1354,VALID,72,VALID,0.536719,
2010-10-23, 02:38:04,VALID,998.174,VALID,0,VALID,91.0824,VALID,0,VALID,23.1159,VALID,72,VALID,0.488672,
2010-10-23, 02:39:05,VALID,998.205,VALID,0,VALID,91.1053,VALID,0,VALID,23.1159,VALID,72,VALID,0.489062,
2010-10-23, 02:40:05,VALID,998.228,VALID,0,VALID,91.1053,VALID,0,VALID,23.1354,VALID,72,VALID,0.43125,
2010-10-23, 02:41:05,VALID,998.202,VALID,0,VALID,91.0748,VALID,0,VALID,23.1354,VALID,72,VALID,0.314844,
2010-10-23, 02:42:05,VALID,998.204,VALID,0,VALID,91.0366,VALID,0,VALID,23.1549,VALID,72,VALID,0.308594,
2010-10-23, 02:43:05,VALID,998.159,VALID,0,VALID,90.9832,VALID,0,VALID,23.1566,VALID,72,VALID,0.0117188,
2010-10-23, 02:44:05,VALID,998.145,VALID,0,VALID,90.9985,VALID,0,VALID,23.1549,VALID,72,VALID,0.125781,
2010-10-23, 02:45:05,VALID,998.183,VALID,0,VALID,91.0061,VALID,0,VALID,23.1549,VALID,72,VALID,0.119922,
2010-10-23, 02:46:05,VALID,998.177,VALID,0,VALID,90.9909,VALID,0,VALID,23.1744,VALID,72,VALID,0.355078,
2010-10-23, 02:47:05,VALID,998.181,VALID,0,VALID,90.9374,VALID,0,VALID,23.1744,VALID,72,VALID,0.301562,
2010-10-23, 02:48:05,VALID,998.199,VALID,0,VALID,90.9527,VALID,0,VALID,23.1549,VALID,72,VALID,0.292578,
2010-10-23, 02:49:05,VALID,998.202,VALID,0,VALID,90.9146,VALID,0,VALID,23.1744,VALID,72,VALID,0.189453,
2010-10-23, 02:50:05,VALID,998.197,VALID,0,VALID,90.8764,VALID,0,VALID,23.1549,VALID,72,VALID,0.132031,
2010-10-23, 02:51:05,VALID,998.203,VALID,0,VALID,90.9146,VALID,0,VALID,23.1336,VALID,72,VALID,0.198828,
2010-10-23, 02:52:05,VALID,998.176,VALID,0,VALID,90.9374,VALID,0,VALID,23.1371,VALID,72,VALID,0.185547,
2010-10-23, 02:53:05,VALID,998.189,VALID,0,VALID,90.9527,VALID,0,VALID,23.1159,VALID,72,VALID,0,
2010-10-23, 02:54:05,VALID,998.18,VALID,0,VALID,91.029,VALID,0,VALID,23.1354,VALID,72,VALID,0,
2010-10-23, 02:55:05,VALID,998.181,VALID,0,VALID,91.1206,VALID,0,VALID,23.1354,VALID,72,VALID,0,
2010-10-23, 02:56:05,VALID,998.205,VALID,0,VALID,91.1968,VALID,0,VALID,23.1354,VALID,72,VALID,0,
2010-10-23, 02:57:05,VALID,998.211,VALID,0,VALID,91.2579,VALID,0,VALID,23.1744,VALID,72,VALID,0.283203,
2010-10-23, 02:58:05,VALID,998.214,VALID,0,VALID,91.2655,VALID,0,VALID,23.1939,VALID,72,VALID,0.347656,
2010-10-23, 02:59:05,VALID,998.238,VALID,0,VALID,91.235,VALID,0,VALID,23.2134,VALID,72,VALID,0.311719,
2010-10-23, 03:00:05,VALID,998.247,VALID,0,VALID,91.1816,VALID,0,VALID,23.2117,VALID,72,VALID,0.240234,
2010-10-23, 03:01:05,VALID,998.301,VALID,0,VALID,91.1434,VALID,0,VALID,23.2329,VALID,72,VALID,0.284375,
2010-10-23, 03:02:05,VALID,998.335,VALID,0,VALID,91.1358,VALID,0,VALID,23.2524,VALID,72,VALID,0.147266,
2010-10-23, 03:03:05,VALID,998.356,VALID,0,VALID,91.1511,VALID,0,VALID,23.2524,VALID,72,VALID,0.178516,
2010-10-23, 03:04:05,VALID,998.329,VALID,0,VALID,91.1816,VALID,0,VALID,23.2524,VALID,72,VALID,0,
2010-10-23, 03:05:05,VALID,998.36,VALID,0,VALID,91.1816,VALID,0,VALID,23.2524,VALID,72,VALID,0,
2010-10-23, 03:06:05,VALID,998.323,VALID,0,VALID,91.2121,VALID,0,VALID,23.2524,VALID,72,VALID,0.0117188,
2010-10-23, 03:07:05,VALID,998.307,VALID,0,VALID,91.2884,VALID,0,VALID,23.2524,VALID,72,VALID,0.15,
2010-10-23, 03:08:05,VALID,998.26,VALID,0,VALID,91.3418,VALID,0,VALID,23.2524,VALID,72,VALID,0.0835937,
2010-10-23, 03:09:05,VALID,998.253,VALID,0,VALID,91.3952,VALID,0,VALID,23.2524,VALID,72,VALID,0.217969,
2010-10-23, 03:10:05,VALID,998.207,VALID,0,VALID,91.4334,VALID,0,VALID,23.2719,VALID,72,VALID,0,
2010-10-23, 03:11:05,VALID,998.192,VALID,0,VALID,91.441,VALID,0,VALID,23.2524,VALID,72,VALID,0,
2010-10-23, 03:12:05,VALID,998.221,VALID,0,VALID,91.4563,VALID,0,VALID,23.2524,VALID,72,VALID,0,
2010-10-23, 03:13:05,VALID,998.232,VALID,0,VALID,91.4791,VALID,0,VALID,23.2329,VALID,72,VALID,0,
2010-10-23, 03:14:05,VALID,998.235,VALID,0,VALID,91.502,VALID,0,VALID,23.2524,VALID,72,VALID,0.0183594,
2010-10-23, 03:15:05,VALID,998.249,VALID,0,VALID,91.5478,VALID,0,VALID,23.2524,VALID,126,VALID,0.667969,
2010-10-23, 03:16:05,VALID,998.229,VALID,0,VALID,91.5402,VALID,0,VALID,23.2719,VALID,129,VALID,0.556641,
2010-10-23, 03:17:05,VALID,998.236,VALID,0,VALID,91.4791,VALID,0,VALID,23.311,VALID,129,VALID,0.469531,
2010-10-23, 03:18:05,VALID,998.269,VALID,0,VALID,91.3189,VALID,0,VALID,23.35,VALID,129,VALID,0.500781,
2010-10-23, 03:19:05,VALID,998.227,VALID,0,VALID,91.1206,VALID,0,VALID,23.35,VALID,129,VALID,0.503516,
2010-10-23, 03:20:05,VALID,998.232,VALID,0,VALID,90.884,VALID,0,VALID,23.389,VALID,129,VALID,0.248828,
2010-10-23, 03:21:05,VALID,998.223,VALID,0,VALID,90.7238,VALID,0,VALID,23.428,VALID,129,VALID,0,
2010-10-23, 03:22:05,VALID,998.198,VALID,0,VALID,90.6933,VALID,0,VALID,23.428,VALID,129,VALID,0,
2010-10-23, 03:23:05,VALID,998.174,VALID,0,VALID,90.7085,VALID,0,VALID,23.4475,VALID,129,VALID,0.0765625,
2010-10-23, 03:24:05,VALID,998.131,VALID,0,VALID,90.7772,VALID,0,VALID,23.4475,VALID,129,VALID,0.130469,
2010-10-23, 03:25:05,VALID,998.093,VALID,0,VALID,90.8917,VALID,0,VALID,23.4475,VALID,129,VALID,0.314844,
2010-10-23, 03:26:05,VALID,998.087,VALID,0,VALID,90.968,VALID,0,VALID,23.4493,VALID,129,VALID,0.366797,
2010-10-23, 03:27:05,VALID,998.109,VALID,0,VALID,91.0061,VALID,0,VALID,23.4475,VALID,125,VALID,0.516406,
2010-10-23, 03:28:05,VALID,998.082,VALID,0,VALID,90.9832,VALID,0,VALID,23.4475,VALID,62,VALID,0.506641,
2010-10-23, 03:29:05,VALID,998.075,VALID,0,VALID,90.9069,VALID,0,VALID,23.4475,VALID,62,VALID,0.642187,
2010-10-23, 03:30:05,VALID,998.047,VALID,0,VALID,90.8154,VALID,0,VALID,23.4475,VALID,62,VALID,0.666406,
2010-10-23, 03:31:05,VALID,998.037,VALID,0,VALID,90.6933,VALID,0,VALID,23.4475,VALID,63,VALID,0.779688,
2010-10-23, 03:32:05,VALID,998.041,VALID,0,VALID,90.5865,VALID,0,VALID,23.5061,VALID,64,VALID,0.869141,
2010-10-23, 03:33:05,VALID,998.025,VALID,0,VALID,90.411,VALID,0,VALID,23.5256,VALID,64,VALID,0.6625,
2010-10-23, 03:34:05,VALID,998.024,VALID,0,VALID,90.2355,VALID,0,VALID,23.5646,VALID,70,VALID,0.601563,
2010-10-23, 03:35:05,VALID,998.012,VALID,0,VALID,90.0295,VALID,0,VALID,23.5841,VALID,98,VALID,0.823047,
2010-10-23, 03:36:05,VALID,998.031,VALID,0,VALID,89.8159,VALID,0,VALID,23.6036,VALID,98,VALID,0.296484,
2010-10-23, 03:37:05,VALID,998.052,VALID,0,VALID,89.6633,VALID,0,VALID,23.6232,VALID,98,VALID,0.271094,
2010-10-23, 03:38:05,VALID,998.05,VALID,0,VALID,89.5489,VALID,0,VALID,23.6427,VALID,98,VALID,0,
2010-10-23, 03:39:05,VALID,998.045,VALID,0,VALID,89.5565,VALID,0,VALID,23.6232,VALID,98,VALID,0,
2010-10-23, 03:40:05,VALID,998.053,VALID,0,VALID,89.6023,VALID,0,VALID,23.6232,VALID,98,VALID,0.0765625,
2010-10-23, 03:41:05,VALID,998.058,VALID,0,VALID,89.648,VALID,0,VALID,23.6232,VALID,98,VALID,0.191797,
2010-10-23, 03:42:05,VALID,998.066,VALID,0,VALID,89.6938,VALID,0,VALID,23.6427,VALID,98,VALID,0,
2010-10-23, 03:43:05,VALID,998.05,VALID,0,VALID,89.8388,VALID,0,VALID,23.6427,VALID,98,VALID,0,
2010-10-23, 03:44:05,VALID,998.066,VALID,0,VALID,89.999,VALID,0,VALID,23.6232,VALID,98,VALID,0.0101562,
2010-10-23, 03:45:05,VALID,998.057,VALID,0,VALID,90.1821,VALID,0,VALID,23.6036,VALID,98,VALID,0.31875,
2010-10-23, 03:46:05,VALID,998.096,VALID,0,VALID,90.3881,VALID,0,VALID,23.5841,VALID,98,VALID,0.403906,
2010-10-23, 03:47:05,VALID,998.065,VALID,0,VALID,90.5254,VALID,0,VALID,23.5841,VALID,98,VALID,0.384766,